Retour au catalogue

ATLAS 5 CENTAUR DEB

ActifHEO
NORAD 44645·DEBRIS·🇺🇸 United States

Lancé Oct 17, 2018 depuis Cape Canaveral Space Force Station

Loading…

Prochains Passages (prochaines 24 heures)

TLE

FraisSource: Space-Track

Époque: Sep 14, 2026, 09:16 UTC

1 44645U 18079F   26257.38642111 -.00000162  00000-0  00000-0 0  9996
2 44645  13.5239   7.6504 4650016  12.5008 355.8417  1.89807015 54739

Suivez ATLAS 5 CENTAUR DEB en temps réel avec AllMySat

Download on the App Store